Location: Navarre
(52.9016°N, 113.4144°W)
Time: 07:12:32
(UTC+00:00)

Envisat - Pass Details

Date: 05 December 2021
Orbit: 764 x 766 km, 98.2° (Epoch: 17 January)

Event Time Altitude Azimuth Distance (km) Brightness Sun altitude
Rises 11:33:50 0° 23° (NNE) 3,247 6.6 -34.3°
Reaches altitude 10° 11:36:37 10° 38° (NE) 2,315 5.9 -33.8°
Maximum altitude 11:40:39 23° 90° (E) 1,582 5.2 -33.2°
Drops below altitude 10° 11:44:39 10° 143° (SE) 2,300 5.8 -32.6°
Sets 11:47:24 0° 157° (SSE) 3,220 6.4 -32.2°
